{"data":{"norad_id":67453,"epoch":"2026-05-25T00:24:22.756320Z","epoch_age_seconds":84331,"freshness":"FRESH","line1":"1 67453U 26008J   26145.01693005  .00015967  00000+0  58802-3 0  9996","line2":"2 67453  43.0028 134.3148 0002262 266.2441  93.8152 15.27606599 21242","mean_motion":15.27606599,"eccentricity":0.0002262,"inclination_deg":43.0028,"raan_deg":134.3148,"arg_perigee_deg":266.2441,"mean_anomaly_deg":93.8152,"bstar":0.00058802,"rev_number":2124,"period_min":94.265107321653,"perigee_km":481.41746794137,"apogee_km":484.52143249945,"semimajor_km":6861.1064502204,"source":"CELESTRAK","updated_at":"2026-05-25T13:38:21.560817Z"}}